Regional Weather Roundup
Issued by NWS Memphis, TN

Home | Current Version | Previous Version | Text Only | Print | Product List | Glossary On
Versions: 1 2 3 4 5 6 7 8 9 10 11 12 13 14 15 16 17 18 19 20 21 22 23 24 25 26 27 28 29 30 31 32 33 34 35 36 37 38 39 40 41 42 43 44 45 46 47 48 49 50
000
ASUS44 KMEG 260910
RWRMEG
MEMPHIS CWA HOURLY WEATHER ROUNDUP
NATIONAL WEATHER SERVICE MEMPHIS TN
400 AM CDT MON JUN 26 2017

...WEST TENNESSEE...

CITY           SKY/WX    TMP DP  RH WIND       PRES   REMARKS
MEMPHIS INTL   CLOUDY    67  60  78 CALM      30.17R
NWS MEMPHIS      N/A     63 N/A N/A MISG        N/A
JACKSON        CLOUDY    62  60  93 CALM      30.17S
COVINGTON      CLEAR     66  63  88 CALM      30.17S
SOMERVILLE     CLEAR     63  61  94 CALM      30.16S
BOLIVAR        CLEAR     59  57  94 CALM      30.16F
LEXINGTON      CLEAR     57  57 100 CALM      30.16S
SELMER         CLEAR     57  57 100 SW5       30.17S
SAVANNAH       CLEAR     55  55 100 CALM      30.17S
UNION CITY     PTCLDY    66  61  82 NE6       30.17S
PARIS          CLEAR     63  61  94 CALM      30.17R
HUNTINGDON     PTCLDY    64  61  88 CALM      30.16S


...EASTERN ARKANSAS...

CITY           SKY/WX    TMP DP  RH WIND       PRES   REMARKS
JONESBORO      CLOUDY    72  58  61 NW6       30.18R
WEST MEMPHIS   CLOUDY    68  68 100 NW3       30.16S
BATESVILLE     CLOUDY    66  59  77 CALM      30.20S
WALNUT RIDGE   CLOUDY    68  57  68 NW6       30.19S
BLYTHEVILLE    CLOUDY    69  64  84 NW5       30.18R
SEARCY         CLOUDY    67  65  93 CALM      30.20S
STUTTGART      CLOUDY    70  57  64 NW3       30.20R
PINE BLUFF     CLOUDY    66  64  93 CALM      30.19R
MONTICELLO     CLEAR     64  62  93 W3        30.18R


...NORTH MISSISSIPPI...

CITY           SKY/WX    TMP DP  RH WIND       PRES   REMARKS
TUPELO         CLEAR     61  58  90 CALM      30.17S
OXFORD         CLEAR     57  55  94 CALM      30.19S
BATESVILLE     CLEAR     60  58  96 CALM      30.18S
TUNICA           N/A     63  61  94 CALM      30.19R
CLARKSDALE       N/A     64  64 100 CALM      30.18R
CORINTH        CLEAR     59  57  94 CALM      30.17S
GREENWOOD      CLEAR     62  61  96 CALM      30.17S
COLUMBUS       FOG       60  60 100 CALM      30.16R VSB 1/4
STARKVILLE     CLEAR     59  59 100 CALM      30.18R FOG
GOLDEN TRIANGL MOCLDY    61  55  82 CALM      30.13R VSB 3/4


...SOUTHEAST MISSOURI...

CITY           SKY/WX    TMP DP  RH WIND       PRES   REMARKS
KENNETT        CLOUDY    72  61  68 N8        30.16R
MALDEN         CLOUDY    70  54  56 N5        30.19S
WEST PLAINS    CLOUDY    66  50  56 N6        30.24S
POPLAR BLUFF   CLOUDY    67  60  78 N5        30.18S
CAPE GIRARDEAU CLOUDY    68  55  63 N3        30.19R


...NORTHWEST ALABAMA...

CITY           SKY/WX    TMP DP  RH WIND       PRES   REMARKS
MUSCLE SHOALS  PTCLDY    58  55  90 CALM      30.18S


...MIDDLE TENNESSEE...

CITY           SKY/WX    TMP DP  RH WIND       PRES   REMARKS
NASHVILLE      MOCLDY    61  57  87 CALM      30.16S
CLARKSVILLE    CLOUDY    64  56  75 N5        30.17R
COLUMBIA       CLEAR     57  57 100 CALM      30.16S


...WESTERN KENTUCKY...

CITY           SKY/WX    TMP DP  RH WIND       PRES   REMARKS
PADUCAH        CLOUDY    67  54  63 CALM      30.17S
FORT CAMPBELL  CLOUDY    65  55  70 N3        30.17R


...CENTRAL ARKANSAS...

CITY           SKY/WX    TMP DP  RH WIND       PRES   REMARKS
LITTLE ROCK    CLOUDY    67  65  93 SW5       30.19S


SKY/WX REPORTED AS FAIR MEANS FEW OR NO CLOUDS BELOW
12 THOUSAND FEET.





USA.gov is the U.S. government's official web portal to all federal, state and local government web resources and services.